ARIANE 42P DEB *, 47108

Orbit data source: Space-Track

ARIANE 42P DEB *, 47108 is space debris in LEO originally from a launch on Mon, 10 Aug 1992 UTC launched from the French Guiana (FRGUI). Debris objects in space refer to the collection of defunct objects orbiting the Earth. Examples of debris include non-operational satellites, rocket bodies, and fragments generated from explosions, collisions, or faulty payload assembly.

Loading next visibility...
Identifier
47108, 1992-052P
Orbit
LEO
Country
Flag of FRFR
Related business
Manufacturer
ArianeGroup
Mission
Spacecraft
Bus & Motor
Unknown
Mass
Unknown
Launch date (UTC)
1992-08-10 (33 years ago)
Launch vehicle
Unknown
Launch site
French Guiana (FRGUI)
Object type
Payload
Rocket body
Debris
Shape & HBR
Unknown shape, 0.1 m
Radar Cross Section
Small (<0.1 m²)

Expand to show TLE details & history
Last TLE update: 4 days ago

TLE from 4 days ago
0 ARIANE 42P DEB *
1 47108U 92052P   25351.47902130  .00001272  00000-0  68831-3 0  9991
2 47108  65.8170  21.4709 1172153   0.9586 359.3297 12.44020990 76608
Epoch: 2025-12-17T11:29Z
TLE epoch observation values (Epoch: 2025-12-17T11:29:47.440Z)
Latitude
-0.00005°
Longitude
122.67492°
Altitude
569.266 km
Speed
8.008 km/s
True Right ascension
01h 25m 53s
True Declination
0° 00' 00"
Sunlit
Object was in full shadow at epoch
Visualization orbit readout
Latitude
Unknown
Longitude
Unknown
Altitude
Unknown
Speed
Unknown
Apparent Right ascension
Unknown
Apparent Declination
Unknown
Sunlit
N/A
Visualization observer readout
Local Sidereal Time
00:40:36
Azimuth
Unknown
Elevation
Unknown
Doppler factor
Unknown
Orbital elements
Apogee altitude
2,410.244 km
Perigee altitude
566.136 km
Semi-major axis
7,866.327 km
Eccentricity
0.11722
Inclination
65.817°
RAAN
21.4709°
Arg. of periapsis
0.9586°
True anomaly
359.14581°
Mean anomaly
359.3297°
Eccentric anomaly
359.2407°
Mean motion
3.11089 °/min
Orbital period
115.72 mins
BSTAR
0.00068831
Loading maneuver chart data...
Computing Atmospheric mass density...
Loading historical data...
Loading historical data...
Loading historical data...
Loading historical data...
Loading historical data...
Loading historical data...
Loading historical data...

Documentation

Showing up to 5 results
|